Hourly Weather Roundup
Issued by NWS Central Illinois

Home | Current Version | Previous Version | Text Only | Print | Product List | Glossary On
Versions: 1 2 3 4 5 6 7 8 9 10 11 12 13 14 15 16 17 18 19 20 21 22 23 24 25 26 27 28 29 30 31 32 33 34 35 36 37 38 39 40 41 42 43 44 45 46 47 48 49 50
000
NZUS43 KILX 271010
HWRILX

AREA WEATHER ROUNDUP
NATIONAL WEATHER SERVICE, LINCOLN IL
500 AM CDT MON APR 27 2015


CITY           SKY/WX    TMP DP  RH WIND       PRES   REMARKS
BLOOMINGTON    CLEAR     37  29  73 NW7       30.08R WCI  31
CHAMPAIGN      CLEAR     39  29  67 N10       30.04R WCI  32
DANVILLE       CLEAR     37  31  79 NW9       29.99R WCI  30
DECATUR        CLEAR     39  29  67 NW7       30.06R WCI  34
EFFINGHAM      CLEAR     40  28  61 NW5       30.05R
FLORA          CLEAR     39  32  75 N7        30.02F WCI  34
GALESBURG      CLEAR     34  32  93 CALM      30.09R
JACKSONVILLE   CLEAR     37  35  90 N3        30.06F
LACON          CLEAR     38  33  82 CALM      30.08R
LAWRENCEVILLE  CLEAR     38  30  73 NW7       30.00S WCI  33
LITCHFIELD     CLEAR     36  31  83 N7        30.04F WCI  30
$$


CITY           SKY/WX    TMP DP  RH WIND       PRES   REMARKS
LINCOLN        CLEAR     38  32  78 W5        30.08R WCI  35
MACOMB         CLEAR     37  34  89 N5        30.10R WCI  33
MATTOON        CLEAR     35  28  75 N7        30.03R WCI  29
MT CARMEL AP   CLEAR     41  34  75 NW6       30.00F
OLNEY-NOBLE AP CLEAR     36  32  87 N6        30.01F WCI  31
PARIS          CLEAR     37  31  79 NW7       30.03R WCI  31
PEORIA         CLEAR     37  32  82 CALM      30.09R
PONTIAC        CLEAR     37  32  84 NW6       30.08R WCI  32
RANTOUL        CLEAR     39  31  74 NW8       30.05R WCI  33
ROBINSON       CLEAR     39  31  72 N9        30.01S WCI  33
SPRINGFIELD    CLEAR     36  32  85 CALM      30.07R
TAYLORVILLE    CLEAR     34  32  93 N8        30.05F WCI  27
$$

...REGIONAL REPORTS...


CITY           SKY/WX    TMP DP  RH WIND       PRES   REMARKS
CHICAGO O`HARE CLEAR     39  30  70 N10G22    30.04F WCI  32
KANKAKEE       CLEAR     39  32  77 NW6       30.03S WCI  35
MOLINE         CLEAR     37  33  85 E7        30.09R WCI  32
MOUNT VERNON   CLEAR     37  28  70 N3        30.02S
PITTSFIELD     CLEAR     39  35  87 W5        30.08R
QUINCY         CLEAR     38  32  79 N3        30.07S
ROCKFORD       CLEAR     36  28  73 N6        30.10F WCI  31
$$


CITY           SKY/WX    TMP DP  RH WIND       PRES   REMARKS
BURLINGTON     CLEAR     42  33  70 NW6       30.07S
CEDAR RAPIDS   CLEAR     36  30  79 NW8       30.08R WCI  30
DES MOINES     CLEAR     41  32  70 NW3       30.13R
KIRKSVILLE     CLEAR     35  34  96 N5        30.10R WCI  31
OTTUMWA        CLEAR     35  33  92 NW6       30.10R WCI  30
ST LOUIS       PTCLDY    43  33  68 CALM      30.05S
$$


CITY           SKY/WX    TMP DP  RH WIND       PRES   REMARKS
TERRE HAUTE    CLEAR     38  30  73 W5        30.01R WCI  34
EVANSVILLE     CLEAR     43  32  65 N5        29.99R
INDIANAPOLIS   CLEAR     36  29  75 W6        29.95R WCI  31
LAFAYETTE      CLEAR     36  32  85 N5        29.98S WCI  32
MADISON        CLEAR     32  28  85 N5        30.10F WCI  27
MILWAUKEE      CLEAR     40  28  62 N7        30.07F
$$





USA.gov is the U.S. government's official web portal to all federal, state and local government web resources and services.